199P/Shoemaker 4 (2009)

Japanese version
Home page
Total 5,708 html files since Dec. 4, 1995
Updated on May 6, 2008

---------------------------------------------------------------------

* Profile

Designation 199P/2008 G2
Recovery Date April 10, 2008
Magnitude 18.6 mag
Recoverer Catalina Sky Survey

* Pictures

* Orbital Elements

Epoch 2009 Mar. 30.0 TT = JDT 2454920.5
T 2009 Apr.  9.81934 TT                                 MPC
q   2.9353518            (2000.0)            P               Q
n   0.06762254     Peri.  191.92261     +0.23767364     +0.87666492
a   5.9668032      Node    92.94836     -0.85322884     +0.39423435
e   0.5080528      Incl.   24.76190     -0.46423248     -0.27574971
P  14.58

* Finding Charts

* Magnitudes Graph

        m1 = 8 + 5 log d + 15 log r

---------------------------------------------------------------------

The orbital elements are published on M.P.E.C. 2008-H20.
The charts are made with StellaNavigator Ver.8 (AstroArts).
The magnitudes graphs are made with Comet for Windows.

---------------------------------------------------------------------

Copyright(C) 1995-2007 Seiichi Yoshida (comet@aerith.net). All rights reserved.